Tracking 25620 objects as of 18-May-2022
HD Live streaming from Space Station
objects crossing your sky now

STARLINK-1074

Track STARLINK-1074 now!
10-day predictions
STARLINK-1074 is classified as:


NORAD ID: 44957
Int'l Code: 2020-001AV
Perigee: 553.2 km
Apogee: 555.4 km
Inclination: 53.1 °
Period: 95.6 minutes
Semi major axis: 6925 km
RCS: Unknown
Launch date: January 7, 2020
Source: United States (US)
Launch site: AIR FORCE EASTERN TEST RANGE (AFETR)
aabbcc
Your satellite tracking list
Your tracking list is empty




NASA's NSSDC Master Catalog

Two Line Element Set (TLE):
1 44957U 20001AV  22138.04169160  .00002820  00000-0  20807-3 0  9997
2 44957  53.0548  73.9732 0001559  74.4779 285.6382 15.06411771130657
Source of the keplerian elements: AFSPC